| time (UTC) | temp F | wind direction | speed MPH | gust MPH | rain 1hr in | rain 24hr in | rain mn in | humidity % | barometer mb |
| 20260509091503 | 90 | 92 | 9.0 | 15.0 | 0.00 | 0.00 | 0.00 | 66 | 1009.4 |
| 20260509091135 | 91 | 108 | 8.0 | 19.0 | 0.00 | 0.00 | 0.00 | 67 | 1009.3 |
| 20260509090156 | 91 | 101 | 9.0 | 19.0 | 0.00 | 0.00 | 0.00 | 66 | 1009.2 |
| 20260509090124 | 90 | 123 | 10.0 | 19.0 | 0.00 | 0.00 | 0.00 | 65 | 1009.3 |
| 20260509085123 | 91 | 150 | 8.0 | 23.0 | 0.00 | 0.00 | 0.00 | 65 | 1009.1 |
| 20260509084504 | 91 | 128 | 10.0 | 19.0 | 0.00 | 0.00 | 0.00 | 64 | 1009.1 |
| 20260509084113 | 92 | 128 | 10.0 | 23.0 | 0.00 | 0.00 | 0.00 | 64 | 1009.1 |
| 20260509083103 | 92 | 117 | 11.0 | 21.0 | 0.00 | 0.00 | 0.00 | 62 | 1008.9 |
| 20260509081603 | 92 | 149 | 12.0 | 23.0 | 0.00 | 0.00 | 0.00 | 62 | 1008.8 |
| 20260509080858 | 93 | 159 | 10.0 | 23.0 | 0.00 | 0.00 | 0.00 | 61 | 1008.9 |
| 20260509080002 | 93 | 109 | 13.0 | 23.0 | 0.00 | 0.00 | 0.00 | 61 | 1008.9 |
| 20260509075834 | 93 | 104 | 11.0 | 23.0 | 0.00 | 0.00 | 0.00 | 60 | 1008.9 |
| 20260509074825 | 94 | 131 | 12.0 | 21.0 | 0.00 | 0.00 | 0.00 | 60 | 1008.9 |
| 20260509074604 | 93 | 121 | 12.0 | 22.0 | 0.00 | 0.00 | 0.00 | 60 | 1008.9 |
| 20260509073005 | 94 | 111 | 10.0 | 22.0 | 0.00 | 0.00 | 0.00 | 58 | 1009.1 |
| 20260509072723 | 94 | 113 | 11.0 | 20.0 | 0.00 | 0.00 | 0.00 | 58 | 1009.1 |
| 20260509071505 | 94 | 136 | 11.0 | 20.0 | 0.00 | 0.00 | 0.00 | 58 | 1009.3 |
| 20260509070636 | 94 | 149 | 10.0 | 23.0 | 0.00 | 0.00 | 0.00 | 59 | 1009.3 |
| 20260509065604 | 94 | 164 | 11.0 | 23.0 | 0.00 | 0.00 | 0.00 | 58 | 1009.4 |
| 20260509064533 | 94 | 124 | 12.0 | 22.0 | 0.00 | 0.00 | 0.00 | 57 | 1009.5 |
| 20260509064503 | 94 | 105 | 16.0 | 23.0 | 0.00 | 0.00 | 0.00 | 57 | 1009.6 |
| 20260509063533 | 95 | 134 | 11.0 | 21.0 | 0.00 | 0.00 | 0.00 | 57 | 1009.5 |
| 20260509063122 | 94 | 123 | 9.0 | 20.0 | 0.00 | 0.00 | 0.00 | 58 | 1009.7 |
| 20260509062547 | 94 | 106 | 12.0 | 21.0 | 0.00 | 0.00 | 0.00 | 57 | 1009.7 |
| 20260509061603 | 94 | 118 | 13.0 | 19.0 | 0.00 | 0.00 | 0.00 | 57 | 1009.8 |
| 20260509061540 | 95 | 121 | 10.0 | 18.0 | 0.00 | 0.00 | 0.00 | 57 | 1009.7 |
| 20260509060536 | 95 | 107 | 9.0 | 18.0 | 0.00 | 0.00 | 0.00 | 56 | 1009.7 |
| 20260509060003 | 95 | 139 | 9.0 | 19.0 | 0.00 | 0.00 | 0.00 | 55 | 1009.9 |
| 20260509055528 | 95 | 103 | 10.0 | 21.0 | 0.00 | 0.00 | 0.00 | 55 | 1009.9 |
| 20260509054603 | 94 | 133 | 9.0 | 22.0 | 0.00 | 0.00 | 0.00 | 56 | 1010.0 |
| 20260509054550 | 95 | 139 | 11.0 | 21.0 | 0.00 | 0.00 | 0.00 | 56 | 1009.9 |
| 20260509053007 | 94 | 121 | 10.0 | 21.0 | 0.00 | 0.00 | 0.00 | 55 | 1010.2 |
| 20260509052431 | 95 | 117 | 10.0 | 19.0 | 0.00 | 0.00 | 0.00 | 55 | 1010.2 |
| 20260509051507 | 95 | 171 | 8.0 | 20.0 | 0.00 | 0.00 | 0.00 | 57 | 1010.5 |
| 20260509051415 | 95 | 105 | 11.0 | 19.0 | 0.00 | 0.00 | 0.00 | 57 | 1010.5 |
| 20260509050106 | 95 | 90 | 8.0 | 20.0 | 0.00 | 0.00 | 0.00 | 56 | 1010.7 |
| 20260509045257 | 95 | 144 | 10.0 | 19.0 | 0.00 | 0.00 | 0.00 | 55 | 1011.0 |
| 20260509044504 | 95 | 133 | 11.0 | 18.0 | 0.00 | 0.00 | 0.00 | 54 | 1011.2 |
| 20260509044231 | 95 | 113 | 9.0 | 17.0 | 0.00 | 0.00 | 0.00 | 53 | 1011.2 |
| 20260509043200 | 95 | 121 | 9.0 | 18.0 | 0.00 | 0.00 | 0.00 | 54 | 1011.4 |
| 20260509043105 | 95 | 122 | 10.0 | 18.0 | 0.00 | 0.00 | 0.00 | 54 | 1011.5 |
| 20260509042210 | 95 | 153 | 9.0 | 18.0 | 0.00 | 0.00 | 0.00 | 53 | 1011.6 |
| 20260509041603 | 95 | 148 | 9.0 | 16.0 | 0.00 | 0.00 | 0.00 | 53 | 1011.7 |
| 20260509041208 | 95 | 165 | 8.0 | 15.0 | 0.00 | 0.00 | 0.00 | 53 | 1011.7 |
| 20260509040157 | 95 | 121 | 7.0 | 14.0 | 0.00 | 0.00 | 0.00 | 53 | 1011.8 |
| 20260509040004 | 95 | 126 | 9.0 | 14.0 | 0.00 | 0.00 | 0.00 | 53 | 1011.9 |
| 20260509035149 | 95 | 157 | 7.0 | 17.0 | 0.00 | 0.00 | 0.00 | 54 | 1011.9 |
| 20260509034504 | 94 | 144 | 7.0 | 18.0 | 0.00 | 0.00 | 0.00 | 55 | 1012.0 |
| 20260509034205 | 94 | 107 | 8.0 | 17.0 | 0.00 | 0.00 | 0.00 | 55 | 1012.0 |
| 20260509033218 | 94 | 117 | 7.0 | 14.0 | 0.00 | 0.00 | 0.00 | 57 | 1012.1 |
| 20260509033111 | 93 | 123 | 8.0 | 15.0 | 0.00 | 0.00 | 0.00 | 57 | 1012.2 |
| 20260509032202 | 94 | 119 | 8.0 | 14.0 | 0.00 | 0.00 | 0.00 | 58 | 1012.3 |
| 20260509031603 | 93 | 111 | 8.0 | 14.0 | 0.00 | 0.00 | 0.00 | 58 | 1012.3 |
| 20260509031212 | 93 | 104 | 8.0 | 14.0 | 0.00 | 0.00 | 0.00 | 58 | 1012.3 |
| 20260509030150 | 93 | 127 | 8.0 | 15.0 | 0.00 | 0.00 | 0.00 | 59 | 1012.4 |
| 20260509030010 | 93 | 113 | 9.0 | 16.0 | 0.00 | 0.00 | 0.00 | 59 | 1012.4 |
| 20260509025157 | 94 | 135 | 8.0 | 15.0 | 0.00 | 0.00 | 0.00 | 59 | 1012.4 |
| 20260509024607 | 93 | 140 | 9.0 | 16.0 | 0.00 | 0.00 | 0.00 | 60 | 1012.6 |
| 20260509024200 | 93 | 120 | 7.0 | 15.0 | 0.00 | 0.00 | 0.00 | 60 | 1012.6 |
| 20260509023215 | 93 | 123 | 7.0 | 14.0 | 0.00 | 0.00 | 0.00 | 60 | 1012.6 |
| 20260509023004 | 93 | 120 | 8.0 | 15.0 | 0.00 | 0.00 | 0.00 | 60 | 1012.8 |
| 20260509022144 | 94 | 111 | 7.0 | 14.0 | 0.00 | 0.00 | 0.00 | 60 | 1012.8 |
| 20260509021504 | 93 | 115 | 8.0 | 15.0 | 0.00 | 0.00 | 0.00 | 60 | 1012.9 |
| 20260509021113 | 93 | 117 | 6.0 | 13.0 | 0.00 | 0.00 | 0.00 | 61 | 1012.9 |
| 20260509020107 | 92 | 111 | 6.0 | 11.0 | 0.00 | 0.00 | 0.00 | 61 | 1013.0 |
| 20260509015102 | 92 | 104 | 7.0 | 11.0 | 0.00 | 0.00 | 0.00 | 61 | 1013.2 |
| 20260509014504 | 92 | 106 | 7.0 | 12.0 | 0.00 | 0.00 | 0.00 | 60 | 1013.2 |
| 20260509014123 | 92 | 107 | 5.0 | 11.0 | 0.00 | 0.00 | 0.00 | 62 | 1013.2 |
| 20260509013131 | 92 | 104 | 6.0 | 12.0 | 0.00 | 0.00 | 0.00 | 63 | 1013.2 |
| 20260509013111 | 91 | 104 | 6.0 | 13.0 | 0.00 | 0.00 | 0.00 | 63 | 1013.1 |
| 20260509012137 | 92 | 103 | 6.0 | 12.0 | 0.00 | 0.00 | 0.00 | 64 | 1013.2 |
| 20260509011606 | 91 | 102 | 9.0 | 13.0 | 0.00 | 0.00 | 0.00 | 63 | 1013.3 |
| 20260509011151 | 92 | 99 | 4.0 | 14.0 | 0.00 | 0.00 | 0.00 | 63 | 1013.3 |
| 20260509010212 | 92 | 105 | 6.0 | 14.0 | 0.00 | 0.00 | 0.00 | 63 | 1013.3 |
| 20260509010009 | 91 | 105 | 8.0 | 15.0 | 0.00 | 0.00 | 0.00 | 62 | 1013.4 |
| 20260509005221 | 92 | 91 | 5.0 | 10.0 | 0.00 | 0.00 | 0.00 | 62 | 1013.2 |
| 20260509004604 | 91 | 92 | 8.0 | 11.0 | 0.00 | 0.00 | 0.00 | 62 | 1013.3 |
| 20260509004235 | 92 | 89 | 4.0 | 10.0 | 0.00 | 0.00 | 0.00 | 62 | 1013.2 |
| 20260509003203 | 92 | 86 | 4.0 | 10.0 | 0.00 | 0.00 | 0.00 | 62 | 1013.3 |
| 20260509003004 | 91 | 88 | 4.0 | 11.0 | 0.00 | 0.00 | 0.00 | 62 | 1013.2 |
| 20260509001502 | 90 | 92 | 3.0 | 12.0 | 0.00 | 0.00 | 0.00 | 63 | 1013.3 |
| 20260509001007 | 91 | 93 | 3.0 | 11.0 | 0.00 | 0.00 | 0.00 | 63 | 1013.1 |
| 20260509000010 | 90 | 86 | 3.0 | 9.0 | 0.00 | 0.00 | 0.00 | 64 | 1013.1 |
| 20260508234603 | 89 | 90 | 3.0 | 10.0 | 0.00 | 0.00 | 0.00 | 66 | 1012.9 |
| 20260508233907 | 89 | 90 | 5.0 | 9.0 | 0.00 | 0.00 | 0.00 | 66 | 1012.8 |
| 20260508233003 | 88 | 96 | 5.0 | 10.0 | 0.00 | 0.00 | 0.00 | 66 | 1012.7 |
| 20260508232912 | 89 | 92 | 3.0 | 8.0 | 0.00 | 0.00 | 0.00 | 67 | 1012.7 |
| 20260508231839 | 88 | 93 | 4.0 | 9.0 | 0.00 | 0.00 | 0.00 | 68 | 1012.5 |
| 20260508231503 | 88 | 96 | 6.0 | 9.0 | 0.00 | 0.00 | 0.00 | 67 | 1012.5 |
| 20260508230814 | 88 | 94 | 2.0 | 9.0 | 0.00 | 0.00 | 0.00 | 69 | 1012.5 |
| 20260508225744 | 87 | 100 | 2.0 | 8.0 | 0.00 | 0.00 | 0.00 | 70 | 1012.5 |
| 20260508224509 | 85 | 103 | 3.0 | 6.0 | 0.00 | 0.00 | 0.00 | 73 | 1012.2 |
| 20260508223633 | 85 | 103 | 1.0 | 6.0 | 0.00 | 0.00 | 0.00 | 75 | 1011.9 |
| 20260508223103 | 84 | 103 | 3.0 | 7.0 | 0.00 | 0.00 | 0.00 | 75 | 1011.9 |
| 20260508222611 | 84 | 103 | 2.0 | 6.0 | 0.00 | 0.00 | 0.00 | 76 | 1011.7 |
| 20260508221611 | 83 | 103 | 2.0 | 7.0 | 0.00 | 0.00 | 0.00 | 79 | 1011.7 |
| 20260508220614 | 83 | 103 | 2.0 | 5.0 | 0.00 | 0.00 | 0.00 | 79 | 1011.6 |
| 20260508220002 | 83 | 103 | 4.0 | 6.0 | 0.00 | 0.00 | 0.00 | 79 | 1011.5 |
| 20260508215633 | 83 | 103 | 2.0 | 5.0 | 0.00 | 0.00 | 0.00 | 80 | 1011.4 |
| 20260508214606 | 83 | 103 | 3.0 | 6.0 | 0.00 | 0.00 | 0.00 | 80 | 1011.5 |
| 20260508214600 | 83 | 103 | 2.0 | 6.0 | 0.00 | 0.00 | 0.00 | 80 | 1011.5 |
| 20260508213539 | 83 | 103 | 2.0 | 6.0 | 0.00 | 0.00 | 0.00 | 80 | 1011.4 |
| 20260508213006 | 83 | 103 | 3.0 | 7.0 | 0.00 | 0.00 | 0.00 | 80 | 1011.3 |
| 20260508212556 | 83 | 103 | 1.0 | 6.0 | 0.00 | 0.00 | 0.00 | 80 | 1011.3 |
| 20260508211603 | 83 | 103 | 2.0 | 7.0 | 0.00 | 0.00 | 0.00 | 80 | 1011.4 |
| 20260508211503 | 83 | 103 | 3.0 | 6.0 | 0.00 | 0.00 | 0.00 | 80 | 1011.4 |
| 20260508210604 | 83 | 103 | 2.0 | 7.0 | 0.00 | 0.00 | 0.00 | 80 | 1011.3 |
| 20260508204503 | 83 | 103 | 5.0 | 9.0 | 0.00 | 0.00 | 0.00 | 79 | 1011.2 |
| 20260508204422 | 84 | 103 | 5.0 | 11.0 | 0.00 | 0.00 | 0.00 | 79 | 1011.2 |
| 20260508203426 | 84 | 104 | 5.0 | 11.0 | 0.00 | 0.00 | 0.00 | 79 | 1011.1 |
| 20260508203110 | 83 | 103 | 6.0 | 12.0 | 0.00 | 0.00 | 0.00 | 79 | 1011.2 |
| 20260508202437 | 84 | 107 | 5.0 | 8.0 | 0.00 | 0.00 | 0.00 | 79 | 1011.1 |
| 20260508201604 | 83 | 107 | 4.0 | 9.0 | 0.00 | 0.00 | 0.00 | 79 | 1011.1 |
| 20260508201442 | 84 | 107 | 4.0 | 10.0 | 0.00 | 0.00 | 0.00 | 79 | 1011.0 |
| 20260508200432 | 84 | 108 | 5.0 | 10.0 | 0.00 | 0.00 | 0.00 | 79 | 1011.0 |
| 20260508200010 | 83 | 109 | 7.0 | 11.0 | 0.00 | 0.01 | 0.00 | 79 | 1011.0 |
| 20260508195437 | 84 | 110 | 5.0 | 9.0 | 0.00 | 0.00 | 0.00 | 79 | 1011.0 |
| 20260508194604 | 83 | 109 | 4.0 | 10.0 | 0.00 | 0.01 | 0.00 | 78 | 1011.1 |
| 20260508194407 | 84 | 109 | 5.0 | 9.0 | 0.00 | 0.00 | 0.00 | 79 | 1011.0 |
| 20260508193002 | 83 | 109 | 6.0 | 9.0 | 0.00 | 0.01 | 0.00 | 78 | 1011.0 |
| 20260508192308 | 84 | 107 | 4.0 | 10.0 | 0.00 | 0.00 | 0.00 | 77 | 1010.9 |
| 20260508191505 | 83 | 107 | 6.0 | 12.0 | 0.00 | 0.01 | 0.00 | 77 | 1011.1 |
| 20260508190132 | 84 | 105 | 3.0 | 8.0 | 0.00 | 0.01 | 0.00 | 77 | 1011.1 |
| 20260508185100 | 84 | 105 | 3.0 | 8.0 | 0.00 | 0.01 | 0.00 | 77 | 1011.0 |
| 20260508184502 | 84 | 104 | 4.0 | 9.0 | 0.00 | 0.01 | 0.00 | 77 | 1011.0 |
| 20260508184054 | 84 | 104 | 2.0 | 7.0 | 0.00 | 0.01 | 0.00 | 77 | 1011.0 |
| 20260508183144 | 84 | 104 | 3.0 | 7.0 | 0.00 | 0.01 | 0.00 | 77 | 1011.1 |
| 20260508183021 | 84 | 104 | 4.0 | 9.0 | 0.00 | 0.01 | 0.00 | 77 | 1011.1 |
| 20260508182014 | 84 | 105 | 5.0 | 9.0 | 0.00 | 0.01 | 0.00 | 77 | 1011.1 |
| 20260508181614 | 84 | 105 | 7.0 | 10.0 | 0.00 | 0.01 | 0.00 | 76 | 1011.2 |
| 20260508181004 | 84 | 107 | 5.0 | 10.0 | 0.00 | 0.01 | 0.00 | 76 | 1011.3 |
| 20260508180009 | 84 | 109 | 6.0 | 10.0 | 0.00 | 0.01 | 0.00 | 75 | 1011.3 |
| 20260508180003 | 84 | 109 | 7.0 | 11.0 | 0.00 | 0.01 | 0.00 | 75 | 1011.3 |
| 20260508174602 | 84 | 107 | 5.0 | 10.0 | 0.00 | 0.01 | 0.00 | 75 | 1011.6 |
| 20260508173755 | 85 | 106 | 5.0 | 10.0 | 0.00 | 0.01 | 0.00 | 75 | 1011.7 |
| 20260508173003 | 84 | 107 | 6.0 | 11.0 | 0.00 | 0.01 | 0.00 | 75 | 1011.7 |
| 20260508172806 | 85 | 102 | 6.0 | 10.0 | 0.00 | 0.01 | 0.00 | 75 | 1011.6 |
| 20260508171804 | 85 | 100 | 5.0 | 10.0 | 0.00 | 0.01 | 0.00 | 75 | 1011.5 |
| 20260508171602 | 84 | 105 | 6.0 | 10.0 | 0.00 | 0.01 | 0.00 | 75 | 1011.5 |
| 20260508170803 | 85 | 95 | 5.0 | 11.0 | 0.00 | 0.01 | 0.00 | 75 | 1011.6 |
| 20260508165756 | 85 | 90 | 5.0 | 11.0 | 0.00 | 0.01 | 0.00 | 74 | 1011.7 |
| 20260508164810 | 85 | 94 | 4.0 | 9.0 | 0.00 | 0.01 | 0.00 | 74 | 1011.8 |
| 20260508164602 | 84 | 91 | 4.0 | 10.0 | 0.00 | 0.01 | 0.00 | 74 | 1011.9 |
| 20260508163736 | 85 | 98 | 5.0 | 9.0 | 0.00 | 0.01 | 0.00 | 75 | 1012.0 |
| 20260508163004 | 84 | 117 | 4.0 | 11.0 | 0.00 | 0.01 | 0.00 | 75 | 1012.1 |
| 20260508162723 | 85 | 77 | 5.0 | 10.0 | 0.00 | 0.01 | 0.00 | 75 | 1012.1 |
| 20260508161654 | 85 | 91 | 6.0 | 12.0 | 0.00 | 0.01 | 0.00 | 75 | 1012.1 |
| 20260508161504 | 84 | 72 | 6.0 | 13.0 | 0.00 | 0.01 | 0.00 | 75 | 1012.1 |
| 20260508160710 | 85 | 84 | 5.0 | 12.0 | 0.00 | 0.01 | 0.00 | 75 | 1012.1 |
| 20260508160103 | 84 | 101 | 7.0 | 13.0 | 0.00 | 0.01 | 0.00 | 75 | 1012.2 |
| 20260508155647 | 85 | 87 | 5.0 | 12.0 | 0.00 | 0.01 | 0.01 | 75 | 1012.2 |
| 20260508154703 | 85 | 80 | 6.0 | 11.0 | 0.00 | 0.01 | 0.01 | 75 | 1012.3 |
| 20260508154502 | 85 | 92 | 7.0 | 12.0 | 0.00 | 0.01 | 0.01 | 75 | 1012.4 |
| 20260508153703 | 85 | 90 | 6.0 | 13.0 | 0.00 | 0.01 | 0.01 | 75 | 1012.4 |
| 20260508153104 | 85 | 104 | 6.0 | 15.0 | 0.00 | 0.01 | 0.01 | 75 | 1012.5 |
| 20260508152713 | 85 | 107 | 7.0 | 15.0 | 0.00 | 0.01 | 0.01 | 76 | 1012.6 |
| 20260508151653 | 85 | 94 | 7.0 | 15.0 | 0.00 | 0.01 | 0.01 | 76 | 1012.6 |
| 20260508151602 | 85 | 109 | 5.0 | 16.0 | 0.00 | 0.01 | 0.01 | 76 | 1012.6 |
| 20260508150627 | 85 | 115 | 8.0 | 13.0 | 0.00 | 0.01 | 0.01 | 76 | 1012.7 |
| 20260508150017 | 85 | 98 | 7.0 | 14.0 | 0.00 | 0.01 | 0.01 | 76 | 1012.7 |
| 20260508145643 | 85 | 119 | 7.0 | 13.0 | 0.00 | 0.01 | 0.01 | 76 | 1012.7 |
| 20260508144635 | 85 | 109 | 7.0 | 13.0 | 0.00 | 0.01 | 0.01 | 76 | 1012.7 |
| 20260508144606 | 85 | 113 | 8.0 | 14.0 | 0.00 | 0.01 | 0.01 | 76 | 1012.8 |
| 20260508142503 | 85 | 109 | 11.0 | 19.0 | 0.00 | 0.01 | 0.01 | 75 | 1012.7 |
| 20260508141503 | 85 | 106 | 11.0 | 20.0 | 0.00 | 0.01 | 0.01 | 75 | 1012.8 |
| 20260508141444 | 86 | 104 | 9.0 | 19.0 | 0.00 | 0.01 | 0.01 | 75 | 1012.7 |
| 20260508140446 | 86 | 115 | 7.0 | 14.0 | 0.00 | 0.01 | 0.01 | 75 | 1012.7 |
| 20260508140003 | 85 | 115 | 7.0 | 13.0 | 0.00 | 0.01 | 0.01 | 74 | 1012.9 |
| 20260508135500 | 86 | 111 | 8.0 | 15.0 | 0.00 | 0.01 | 0.01 | 74 | 1012.8 |
| 20260508134608 | 85 | 122 | 9.0 | 15.0 | 0.00 | 0.01 | 0.01 | 73 | 1012.8 |
| 20260508134440 | 86 | 122 | 8.0 | 17.0 | 0.00 | 0.01 | 0.01 | 73 | 1012.6 |
| 20260508133418 | 86 | 109 | 9.0 | 17.0 | 0.00 | 0.01 | 0.01 | 73 | 1012.7 |
| 20260508133002 | 86 | 106 | 9.0 | 18.0 | 0.00 | 0.01 | 0.01 | 73 | 1012.8 |
| 20260508132436 | 86 | 107 | 9.0 | 17.0 | 0.00 | 0.01 | 0.01 | 73 | 1012.6 |
| 20260508131503 | 86 | 130 | 9.0 | 18.0 | 0.00 | 0.01 | 0.01 | 73 | 1012.5 |
| 20260508130231 | 87 | 119 | 9.0 | 15.0 | 0.00 | 0.01 | 0.01 | 72 | 1012.2 |
| 20260508125241 | 87 | 107 | 8.0 | 14.0 | 0.00 | 0.01 | 0.01 | 72 | 1012.2 |
| 20260508124502 | 86 | 92 | 7.0 | 14.0 | 0.00 | 0.01 | 0.01 | 72 | 1012.1 |
| 20260508124255 | 87 | 123 | 7.0 | 13.0 | 0.00 | 0.01 | 0.01 | 72 | 1012.0 |
| 20260508123255 | 87 | 109 | 8.0 | 13.0 | 0.00 | 0.01 | 0.01 | 72 | 1011.9 |
| 20260508123102 | 87 | 99 | 9.0 | 14.0 | 0.00 | 0.01 | 0.01 | 72 | 1012.0 |
| 20260508122258 | 87 | 123 | 7.0 | 12.0 | 0.00 | 0.01 | 0.01 | 71 | 1011.8 |
| 20260508121603 | 87 | 115 | 8.0 | 13.0 | 0.00 | 0.01 | 0.01 | 71 | 1011.7 |
| 20260508121317 | 88 | 96 | 7.0 | 12.0 | 0.00 | 0.01 | 0.01 | 70 | 1011.6 |
| 20260508120250 | 88 | 117 | 7.0 | 15.0 | 0.00 | 0.01 | 0.01 | 70 | 1011.5 |
| 20260508120005 | 87 | 107 | 7.0 | 14.0 | 0.00 | 0.01 | 0.01 | 70 | 1011.5 |
| 20260508115228 | 88 | 123 | 8.0 | 15.0 | 0.00 | 0.01 | 0.01 | 69 | 1011.4 |
| 20260508114604 | 88 | 113 | 8.0 | 15.0 | 0.00 | 0.01 | 0.01 | 69 | 1011.1 |
| 20260508114208 | 88 | 103 | 7.0 | 15.0 | 0.00 | 0.01 | 0.01 | 69 | 1011.1 |
| 20260508113230 | 88 | 110 | 9.0 | 14.0 | 0.00 | 0.01 | 0.01 | 68 | 1010.9 |
| 20260508113005 | 88 | 117 | 9.0 | 15.0 | 0.00 | 0.01 | 0.01 | 68 | 1011.0 |
| 20260508112220 | 89 | 96 | 8.0 | 14.0 | 0.00 | 0.01 | 0.01 | 67 | 1010.9 |
| 20260508111504 | 88 | 132 | 7.0 | 14.0 | 0.00 | 0.01 | 0.01 | 66 | 1010.9 |
| 20260508110103 | 89 | 136 | 8.0 | 16.0 | 0.00 | 0.01 | 0.01 | 64 | 1010.5 |
| 20260508110057 | 89 | 142 | 8.0 | 15.0 | 0.00 | 0.01 | 0.01 | 64 | 1010.5 |
| 20260508105025 | 89 | 134 | 7.0 | 13.0 | 0.00 | 0.01 | 0.01 | 65 | 1010.3 |
| 20260508104605 | 89 | 109 | 7.0 | 14.0 | 0.00 | 0.01 | 0.01 | 66 | 1010.4 |
| 20260508104033 | 89 | 113 | 7.0 | 19.0 | 0.00 | 0.01 | 0.01 | 67 | 1010.2 |
| 20260508103014 | 90 | 111 | 8.0 | 19.0 | 0.00 | 0.01 | 0.01 | 66 | 1010.0 |
| 20260508103003 | 89 | 109 | 9.0 | 20.0 | 0.00 | 0.01 | 0.01 | 66 | 1010.1 |
| 20260508101945 | 90 | 105 | 8.0 | 15.0 | 0.00 | 0.01 | 0.01 | 67 | 1009.9 |
| 20260508101503 | 89 | 111 | 10.0 | 16.0 | 0.00 | 0.01 | 0.01 | 67 | 1009.9 |
| 20260508101002 | 90 | 122 | 8.0 | 15.0 | 0.00 | 0.01 | 0.01 | 66 | 1009.9 |
| 20260508100105 | 90 | 138 | 8.0 | 15.0 | 0.00 | 0.01 | 0.01 | 66 | 1009.9 |
| 20260508095930 | 90 | 105 | 8.0 | 15.0 | 0.00 | 0.01 | 0.01 | 66 | 1009.9 |
| 20260508094915 | 91 | 126 | 8.0 | 15.0 | 0.00 | 0.01 | 0.01 | 65 | 1009.7 |
| 20260508094503 | 90 | 130 | 10.0 | 16.0 | 0.00 | 0.01 | 0.01 | 65 | 1009.3 |
| 20260508093935 | 91 | 111 | 9.0 | 15.0 | 0.00 | 0.01 | 0.01 | 65 | 1009.4 |
| 20260508093103 | 91 | 120 | 10.0 | 18.0 | 0.00 | 0.01 | 0.01 | 63 | 1009.3 |
| 20260508091734 | 92 | 133 | 9.0 | 19.0 | 0.00 | 0.01 | 0.01 | 64 | 1009.1 |